RH
14 13 12 11 12 11 18 55 92 95 79 42 43 19 16 17 19 21 21 21 20 20 20 19 19 18 19 19 19 18 19 19 19 22 27 22 28 45
16 14 13 11 9 10 10 12 57 76 97 76 65 47 20 17 17 18 18 19 19 19 18 18 18 19 20 20 20 20 21 22 22 22 24 27 38 69
15 13 11 11 10 9 10 10 8 36 89 94 98 73 59 23 18 18 18 19 19 18 18 18 19 20 21 29 30 23 23 23 24 26 27 29 63 78
14 13 11 12 13 12 13 15 11 8 14 44 79 91 58 42 43 49 38 20 20 20 21 20 21 22 23 26 24 25 25 26 28 28 36 77 85 85
15 16 17 20 22 16 18 25 30 17 9 19 48 95 88 82 49 27 28 66 28 24 23 23 23 26 27 25 26 26 28 30 30 48 81 87 83 93
20 24 29 32 23 27 29 32 35 31 17 11 64 69 74 88 97 37 27 39 84 83 66 30 72 56 28 27 29 31 31 43 83 95 100 88 88 92
22 29 29 23 24 26 30 32 35 31 26 20 17 28 77 90 100 92 56 30 28 27 33 58 36 28 29 31 33 33 60 95 100 100 97 92 95 88
24 42 46 55 79 99 100 64 52 38 75 42 26 59 83 100 96 96 93 70 45 37 30 30 32 38 54 35 39 76 100 91 98 100 99 98 95 92
46 71 98 89 87 96 93 62 48 89 100 100 98 100 100 99 97 91 94 98 96 59 52 56 58 90 55 49 88 98 91 89 100 100 99 98 98 92
65 94 99 96 100 100 75 100 94 100 98 100 99 100 99 99 94 99 98 97 99 97 98 86 100 95 94 97 100 100 98 98 97 100 100 99 96 92
94 99 98 98 100 100 94 94 100 100 100 100 100 100 100 98 98 99 100 99 99 100 99 96 98 97 100 100 98 99 98 92 91 100 98 97 94 83
93 78 84 99 100 100 100 100 100 94 100 99 98 100 100 95 97 98 100 100 98 96 98 98 98 100 100 99 93 90 91 99 100 100 96 90 81 75
92 98 83 97 100 100 100 100 100 100 98 100 100 100 100 100 99 97 96 99 99 99 100 100 100 97 97 99 100 96 97 99 97 91 87 79 76 86
83 92 98 92 99 100 100 100 100 100 100 98 99 100 100 98 99 100 100 100 100 100 96 98 99 98 98 100 95 100 95 93 92 85 76 79 91 94
95 95 94 99 99 99 100 100 100 100 97 96 100 100 100 100 100 100 100 100 100 98 100 100 100 97 99 100 100 99 97 90 79 73 78 90 96 98
97 100 95 99 99 99 99 99 100 99 98 100 100 100 100 100 100 100 99 99 100 100 100 100 97 100 100 100 100 97 90 84 78 79 81 95 100 100
100 100 100 100 100 100 99 100 100 99 100 100 100 100 99 99 100 100 100 100 100 100 98 100 100 100 100 98 96 86 83 76 84 92 88 86 100 99
100 100 100 100 100 100 100 99 100 100 99 98 100 99 100 100 100 100 100 100 100 100 100 100 100 100 97 93 82 79 80 82 84 84 88 90 93 96
100 100 100 100 100 100 100 100 100 97 98 99 99 98 99 96 96 100 100 100 100 100 100 100 100 97 89 91 92 85 79 78 72 83 93 87 81 82
54 54 48 92 100 98 54 25 32 60 58 56 66 71 81 81 76 75 86 100 100 100 100 100 100 99 97 95 100 91 78 82 78 76 88 82 82 81
21 18 20 21 22 21 21 19 15 12 15 25 34 46 61 74 76 69 70 92 100 100 100 100 100 99 95 95 87 87 92 81 74 76 84 79 76 70
19 25 26 21 19 20 21 23 23 16 9 11 26 39 48 56 67 76 78 85 99 100 98 95 98 99 98 90 80 79 89 83 79 82 86 77 67 59
19 20 24 26 26 26 25 23 19 10 8 9 14 17 20 36 51 83 96 94 97 97 95 94 96 93 88 76 78 84 81 81 82 92 100 97 84 75
Wind_Speed
59 60 64 65 70 71 73 76 72 64 75 71 71 70 70 70 69 67 64 62 60 58 57 57 57 58 58 58 59 60 60 60 58 59 60 61 62 64
61 62 65 66 66 72 74 75 72 74 70 71 70 70 70 71 70 69 66 64 62 60 60 61 61 61 60 60 61 61 61 60 60 61 60 61 64 66
62 63 65 67 69 68 73 75 75 76 82 70 73 72 70 69 69 69 67 65 64 63 63 63 63 64 62 61 63 62 63 62 63 62 62 62 67 64
61 64 64 64 65 65 66 70 72 70 74 74 66 75 70 69 68 68 68 68 66 65 64 65 66 64 64 64 64 64 64 64 63 62 62 71 66 55
62 65 65 63 62 61 61 63 63 65 68 70 69 72 65 68 70 69 68 69 66 64 66 66 64 65 66 66 65 65 66 65 62 61 72 68 57 50
56 59 58 60 57 53 59 56 57 58 64 70 74 76 71 71 72 69 68 68 67 67 68 68 68 69 69 66 66 66 66 64 69 69 62 54 51 52
50 53 56 54 58 61 61 57 57 59 60 62 68 67 65 71 74 65 68 69 69 69 67 67 69 69 67 66 66 66 69 77 73 65 58 53 54 57
46 46 50 53 52 50 48 55 59 61 56 59 62 66 68 63 71 67 68 70 69 67 68 68 67 66 69 69 68 74 65 63 62 57 54 55 59 61
44 46 45 48 49 52 52 43 55 60 57 63 70 66 68 65 71 71 73 75 71 67 67 66 66 71 69 66 75 67 59 58 56 51 54 59 60 63
43 46 46 46 52 52 57 54 57 63 60 57 56 68 74 75 73 71 72 72 72 72 68 71 69 71 75 71 74 61 58 54 49 55 60 62 63 61
28 37 42 44 49 51 58 62 56 51 57 69 66 65 70 73 71 71 72 71 72 73 69 72 74 67 60 56 56 54 48 50 56 60 63 62 59 58
31 29 37 40 44 47 52 57 57 56 52 46 47 52 59 73 67 72 70 70 70 75 72 66 69 61 53 50 47 48 50 55 60 61 60 58 59 58
24 25 22 25 33 37 40 47 46 50 54 59 61 64 62 62 67 69 66 70 66 62 55 47 47 45 45 46 51 52 55 58 60 58 58 58 57 56
30 22 20 16 18 23 33 41 49 55 64 72 60 49 48 51 56 60 58 46 37 39 41 43 43 44 46 51 53 55 57 58 56 57 57 56 55 56
21 18 18 11 14 23 24 26 27 36 45 32 30 41 47 46 43 40 32 35 37 37 40 41 41 44 48 51 53 54 53 53 54 55 55 54 56 58
23 16 19 17 7 12 16 19 21 23 21 19 20 21 23 28 33 34 36 36 34 34 37 41 44 47 49 49 49 50 51 53 53 53 53 54 57 57
23 23 21 20 17 12 13 9 10 10 8 10 14 19 23 26 28 30 30 32 36 41 44 45 46 46 47 49 49 51 52 52 51 53 54 55 56 60
25 26 21 21 22 18 16 15 15 15 16 18 21 24 26 28 32 35 38 40 42 42 45 47 47 47 50 49 50 51 50 51 53 55 56 56 57 62
27 26 25 25 25 23 22 21 24 26 27 28 30 32 33 34 37 40 44 46 48 48 49 48 48 48 50 49 48 49 50 52 53 55 57 59 60 64
26 23 24 23 28 27 25 25 27 27 28 29 31 33 34 35 37 39 41 44 44 45 45 47 46 47 46 45 47 50 51 53 55 56 58 60 62 65
30 29 26 25 25 26 26 25 25 28 30 32 33 35 35 36 37 38 38 39 41 43 44 45 46 45 45 46 48 51 54 56 57 58 60 62 64 67
33 32 31 30 29 29 29 29 28 28 30 31 31 32 33 34 37 38 40 41 41 42 45 46 45 45 46 49 51 54 56 59 60 61 65 68 71 72
36 34 33 31 31 31 31 32 32 31 33 33 34 34 35 36 38 42 45 46 46 45 45 43 44 47 49 51 55 57 58 59 60 64 70 76 79 82
Wind_Direction
256 255 256 256 252 254 251 250 253 256 239 242 244 247 248 249 251 254 257 259 262 266 269 272 274 277 280 283 286 288 290 292 295 295 298 299 301 304
260 260 260 259 258 253 254 252 251 256 247 240 243 245 249 251 253 255 257 260 262 265 267 270 273 276 279 283 286 287 289 292 294 295 297 298 301 305
261 262 262 260 259 257 252 250 250 247 252 252 252 245 247 251 254 256 258 260 262 264 267 270 273 275 279 281 284 287 290 292 293 294 296 299 302 302
266 265 262 260 258 257 254 251 250 250 249 258 261 240 245 249 253 256 260 262 263 265 268 270 273 276 278 281 284 286 288 289 291 294 299 300 298 297
266 262 260 257 254 254 251 252 251 251 250 250 252 247 241 251 250 254 255 259 264 266 268 270 273 276 279 280 282 285 286 287 294 296 297 296 293 293
266 256 256 253 252 249 248 248 248 249 248 248 245 248 253 259 251 251 256 258 264 263 265 267 272 275 275 279 281 282 286 292 290 296 293 291 291 294
266 252 250 249 253 253 252 242 244 247 243 243 247 250 249 257 250 247 253 257 258 260 263 269 269 271 275 277 279 284 285 290 293 291 288 290 292 295
257 258 257 259 255 252 251 247 242 239 240 242 245 246 248 255 250 242 250 253 257 261 263 265 270 273 274 277 283 282 293 291 290 287 287 290 292 295
255 262 264 253 252 253 249 243 240 241 240 246 246 246 251 252 247 251 254 250 252 260 262 266 268 272 276 277 277 286 289 287 288 286 290 291 292 295
256 260 256 255 253 252 244 247 244 246 244 251 252 252 252 252 253 254 253 250 252 256 260 262 267 271 272 283 289 287 285 287 287 289 291 293 293 296
270 260 254 260 247 246 241 241 249 245 253 251 254 254 249 255 257 254 252 254 255 257 263 266 267 283 289 285 281 285 287 288 289 292 293 293 294 298
284 291 268 261 243 239 237 239 250 255 249 261 263 258 261 260 257 253 257 257 258 260 266 277 280 282 279 278 283 284 286 289 290 291 291 294 296 296
283 288 281 257 244 241 239 238 241 243 250 254 257 263 259 260 258 258 262 262 268 276 283 280 274 276 282 281 283 281 285 288 290 290 294 296 295 295
266 272 267 257 239 230 235 241 245 249 248 254 256 252 256 262 266 264 267 276 273 263 261 268 270 274 282 286 285 285 287 290 292 295 295 295 295 295
248 246 252 245 251 229 220 221 224 231 234 235 260 263 263 264 269 266 261 261 259 259 276 281 283 281 283 284 284 286 290 294 295 295 295 295 295 296
220 225 226 239 252 258 246 230 225 224 221 226 236 244 251 253 248 248 251 252 265 275 279 279 279 282 285 286 289 292 294 296 297 297 297 298 298 296
228 229 227 241 240 258 257 268 249 244 249 243 243 243 244 247 253 260 266 269 273 277 280 281 280 283 285 288 293 294 295 297 296 297 299 300 296 295
238 233 235 228 230 244 247 259 268 271 275 273 270 269 268 266 266 266 267 270 274 277 278 280 282 285 288 291 293 294 295 297 299 299 298 298 297 296
231 234 242 235 230 233 240 247 255 253 252 256 260 264 266 268 269 270 270 271 273 273 274 279 282 287 287 289 293 294 296 298 300 299 298 300 299 299
251 244 240 238 228 235 243 249 255 256 259 262 265 264 265 268 271 273 271 267 267 272 275 280 283 287 291 291 292 295 297 297 299 300 299 300 301 303
244 247 244 242 238 241 248 253 256 257 257 258 260 262 264 269 273 277 275 272 271 274 278 282 287 289 288 290 294 296 297 298 299 299 299 300 301 302
244 246 247 248 250 252 255 258 261 264 265 265 266 270 272 276 277 279 278 275 274 278 282 285 286 286 289 293 295 296 296 298 300 301 300 301 300 301
247 247 249 251 253 255 257 260 263 265 266 269 270 272 274 276 277 275 275 276 278 279 280 283 286 289 291 293 295 295 296 298 300 300 301 302 303 304